Waarnemingen

Advertentie
Mijn weer
Pajala A, Zweden (2095): temperatuur & dauwpunt: 17.01.2021 00:00:00 - 23.01.2021 00:00:00 (CET)Pajala A, Zweden (2095): windsnelheid & windstoten: 17.01.2021 00:00:00 - 23.01.2021 00:00:00 (CET)Pajala A, Zweden (2095): windrichting: 17.01.2021 00:00:00 - 23.01.2021 00:00:00 (CET)Pajala A, Zweden (2095): luchtdruk: 17.01.2021 00:00:00 - 23.01.2021 00:00:00 (CET)Pajala A, Zweden (2095): zicht: 17.01.2021 00:00:00 - 23.01.2021 00:00:00 (CET)Pajala A, Zweden (2095): neerslag: 17.01.2021 00:00:00 - 23.01.2021 00:00:00 (CET)
Datum & Tijd tt [°C] td [°C] ff [km/u] ff [kn] fx [km/u] fx [kn] dd ppp [hPa] vv [km] rr [mm]
23.01.2021 00:00:00 - - - - - - - - - -
22.01.2021 23:00:00 -12,4 -15,0 16 9 34 19 ONO 1001,4 6 0,0
22.01.2021 22:00:00 -12,2 -14,9 19 11 37 20 ONO 1001,8 9 0,0
22.01.2021 21:00:00 -12,3 -14,9 15 8 32 18 O 1002,4 6 0,1
22.01.2021 20:00:00 -12,4 -15,0 14 8 29 16 O 1002,6 4,0 0,0
22.01.2021 19:00:00 -12,5 -14,9 14 8 29 16 ONO 1002,4 7 0,0
22.01.2021 18:00:00 -12,5 -14,8 13 7 29 16 O 1002,6 3,6 0,1
22.01.2021 17:00:00 -12,4 -15,0 15 8 27 15 O 1002,5 13 0,0
22.01.2021 16:00:00 -12,3 -14,7 13 7 29 16 O 1002,8 7 0,0
22.01.2021 15:00:00 -12,4 -14,8 14 7 26 14 ONO 1003,0 3,9 0,0
22.01.2021 14:00:00 -12,3 -14,7 14 8 30 16 O 1003,0 4,4 0,0
22.01.2021 13:00:00 -12,3 -14,7 14 8 30 16 ONO 1002,8 4,6 0,0
22.01.2021 12:00:00 -12,2 -14,8 13 7 29 16 O 1003,1 6 0,0
22.01.2021 11:00:00 -12,3 -14,6 14 7 29 15 O 1003,0 5 0,0
22.01.2021 10:00:00 -12,5 -14,6 13 7 29 16 O 1002,8 2,4 0,1
22.01.2021 09:00:00 -12,6 -14,7 13 7 25 14 ONO 1002,6 2,7 0,1
22.01.2021 08:00:00 -12,7 -14,8 13 7 29 16 ONO 1002,2 2,9 0,1
22.01.2021 07:00:00 -12,9 -14,9 16 9 30 16 O 1002,0 1,4 0,5
22.01.2021 06:00:00 -13,0 -15,0 16 9 33 18 O 1002,1 0,6 1,1
22.01.2021 05:00:00 -13,3 -15,4 18 10 37 20 ONO 1002,0 0,6 0,5
22.01.2021 04:00:00 -13,5 -15,8 18 10 40 22 ONO 1002,6 1,5 0,3
22.01.2021 03:00:00 -13,6 -16,0 19 10 39 21 O 1003,3 2,0 0,3
22.01.2021 02:00:00 -13,6 -15,9 19 10 41 22 ONO 1004,0 1,9 0,0
22.01.2021 01:00:00 -13,8 -16,1 19 10 39 21 O 1005,0 7 0,0
22.01.2021 00:00:00 -13,6 -15,9 18 10 35 19 ONO 1006,3 18 0,0
21.01.2021 23:00:00 -13,9 -16,0 16 9 29 16 ONO 1007,3 44 0,0
21.01.2021 22:00:00 -14,3 -16,3 15 8 36 20 ONO 1008,2 50 0,0
21.01.2021 21:00:00 -14,5 -16,3 16 9 34 18 O 1008,9 47 0,0
21.01.2021 20:00:00 -14,6 -16,4 13 7 29 16 ONO 1009,8 42 0,0
21.01.2021 19:00:00 -14,6 -16,4 14 8 28 15 ONO 1010,5 36 0,0
21.01.2021 18:00:00 -14,7 -16,5 15 8 31 17 ONO 1011,1 41 0,0
21.01.2021 17:00:00 -15,0 -16,8 14 7 25 14 O 1011,6 13 0,0
21.01.2021 16:00:00 -16,3 -18,2 10 5 20 11 ONO 1012,3 48 0,0
21.01.2021 15:00:00 -16,5 -18,4 12 6 23 12 ONO 1012,5 40 0,0
21.01.2021 14:00:00 -17,1 -19,2 11 6 19 10 NO 1013,1 25 0,0
21.01.2021 13:00:00 -17,8 -19,8 9 5 16 9 NO 1013,6 13 0,0
21.01.2021 12:00:00 -18,3 -20,5 10 5 16 9 NO 1014,1 46 0,0
21.01.2021 11:00:00 -18,9 -21,1 6 3 - - NO 1014,5 6 0,0
21.01.2021 10:00:00 -19,5 -21,8 8 4 14 7 NO 1014,7 7 0,0
21.01.2021 09:00:00 -19,4 -21,7 10 5 16 9 NO 1015,0 44 0,0
21.01.2021 08:00:00 -19,0 -21,2 6 3 11 6 NNO 1015,0 39 0,0
21.01.2021 07:00:00 -18,6 -20,8 8 5 15 8 NNO 1015,0 39 0,0
21.01.2021 06:00:00 -18,6 -20,8 9 5 14 8 NNO 1014,9 38 0,0
21.01.2021 05:00:00 -18,6 -20,8 5 3 12 6 NNO 1015,0 33 0,0
21.01.2021 04:00:00 -18,4 -20,6 8 5 14 7 NNO 1014,9 50 0,0
21.01.2021 03:00:00 -18,3 -20,5 6 3 11 6 NNO 1015,0 50 0,0
21.01.2021 02:00:00 -17,9 -20,1 7 4 13 7 NO 1015,1 50 0,0
21.01.2021 01:00:00 -17,7 -19,7 9 5 15 8 NO 1015,2 50 0,0
21.01.2021 00:00:00 -17,6 -19,6 7 4 16 9 NNO 1015,5 50 0,0
20.01.2021 23:00:00 -17,6 -19,6 9 5 15 8 NO 1015,6 17 0,0
20.01.2021 22:00:00 -17,4 -19,4 10 6 16 9 NNO 1015,7 50 0,0
20.01.2021 21:00:00 -17,1 -19,2 8 4 12 6 NNO 1015,6 37 0,0
20.01.2021 20:00:00 -17,0 -19,1 6 3 11 6 NNO 1015,6 44 0,0
20.01.2021 19:00:00 -16,9 -19,0 7 4 14 7 NO 1015,4 41 0,0
20.01.2021 18:00:00 -19,1 -21,3 6 4 14 8 NNO 1015,6 50 0,0
20.01.2021 17:00:00 -25,1 -28,0 8 5 13 7 NNO 1015,8 18 0,0
20.01.2021 16:00:00 -25,3 -28,1 7 4 10 6 NNO 1015,8 11 0,0
20.01.2021 15:00:00 -24,3 -27,0 5 3 9 5 NNO 1015,8 6 0,0
20.01.2021 14:00:00 -23,8 -26,5 3 2 - - N 1015,7 30 0,0
20.01.2021 13:00:00 -24,9 -27,6 8 4 10 5 NNO 1015,9 14 0,0
20.01.2021 12:00:00 -25,9 -28,7 7 4 9 5 NNO 1016,1 12 0,0
20.01.2021 11:00:00 -26,5 -29,5 0 0 4 2 N 1016,1 9 0,0
20.01.2021 10:00:00 -26,6 -29,6 2 1 5 3 N 1015,9 3,4 0,0
20.01.2021 09:00:00 -27,4 -30,3 6 3 8 5 NNO 1015,8 41 0,0
20.01.2021 08:00:00 -27,3 -30,2 0 0 7 4 N 1015,7 16 0,0
20.01.2021 07:00:00 -27,9 -31,0 0 0 4 2 N 1015,7 50 0,0
20.01.2021 06:00:00 -27,7 -30,8 0 0 4 2 N 1015,6 50 0,0
20.01.2021 05:00:00 -27,0 -29,9 0 0 5 3 N 1015,5 50 0,0
20.01.2021 04:00:00 -26,2 -29,0 4 2 6 3 NNO 1015,4 50 0,0
20.01.2021 03:00:00 -25,6 -28,4 0 0 4 2 N 1015,2 15 0,0
20.01.2021 02:00:00 -24,8 -27,5 0 0 4 2 N 1014,9 15 0,0
20.01.2021 01:00:00 -23,6 -26,2 3 2 8 4 N 1014,8 16 0,0
20.01.2021 00:00:00 -22,2 -24,7 0 0 7 4 N 1014,7 4,6 0,0
19.01.2021 23:00:00 -17,0 -18,8 5 3 8 4 N 1014,3 8 0,0
19.01.2021 22:00:00 -15,6 -17,4 5 3 8 5 N 1014,0 25 0,0
19.01.2021 21:00:00 -16,1 -18,0 3 2 6 3 N 1013,7 14 0,0
19.01.2021 20:00:00 -14,7 -16,5 0 0 4 2 N 1013,4 8 0,0
19.01.2021 19:00:00 -15,1 -16,9 0 0 5 3 N 1013,3 10 0,0
19.01.2021 18:00:00 -16,1 -18,0 3 1 4 2 ZW 1013,0 2,3 0,0
19.01.2021 17:00:00 -16,8 -18,7 2 1 4 2 Z 1012,9 9 0,0
19.01.2021 16:00:00 -17,6 -19,6 5 3 6 4 N 1012,6 0,7 0,0
19.01.2021 15:00:00 -18,6 -20,6 0 0 4 2 N 1012,6 1,4 0,0
19.01.2021 14:00:00 -19,3 -21,6 0 0 3 2 N 1012,1 12 0,0
19.01.2021 13:00:00 -19,7 -22,0 2 1 6 3 N 1011,8 24 0,0
19.01.2021 12:00:00 -18,8 -21,0 0 0 4 2 N 1011,5 32 0,0
19.01.2021 11:00:00 -18,6 -20,8 0 0 4 2 N 1011,2 5 0,0
19.01.2021 10:00:00 -19,8 -22,1 2 1 4 2 ZZW 1011,2 47 0,0
19.01.2021 09:00:00 -21,0 -23,3 0 0 4 2 N 1010,9 2,7 0,0
19.01.2021 08:00:00 -22,6 -25,1 0 0 4 2 N 1010,7 44 0,0
19.01.2021 07:00:00 -23,0 -25,6 0 0 3 1 N 1010,4 50 0,0
19.01.2021 06:00:00 -23,4 -26,0 0 0 3 2 N 1010,0 8 0,0
19.01.2021 05:00:00 -23,3 -25,9 0 0 4 2 N 1009,8 24 0,0
19.01.2021 04:00:00 -22,6 -25,1 0 0 4 2 N 1009,5 50 0,0
19.01.2021 03:00:00 -22,1 -24,6 4 2 5 3 N 1009,3 41 0,0
19.01.2021 02:00:00 -22,0 -24,5 0 0 - - N 1009,2 46 0,0
19.01.2021 01:00:00 -23,5 -26,1 3 1 3 2 O 1009,2 50 0,0
19.01.2021 00:00:00 -24,0 -26,6 0 0 7 4 N 1009,0 50 0,0
18.01.2021 23:00:00 -23,2 -25,8 3 1 6 4 WNW 1009,1 39 0,0
18.01.2021 22:00:00 -22,3 -24,8 0 0 8 4 N 1008,8 13 0,0
18.01.2021 21:00:00 -21,9 -24,4 0 0 5 3 N 1008,8 13 0,0
18.01.2021 20:00:00 -20,1 -22,4 4 2 8 5 W 1008,2 50 0,0
18.01.2021 19:00:00 -18,7 -20,9 5 3 7 4 WNW 1007,9 41 0,0
18.01.2021 18:00:00 -17,0 -19,1 4 2 8 5 NW 1007,9 7 0,0
18.01.2021 17:00:00 -15,1 -16,9 4 2 8 4 NNW 1007,9 2,2 0,0
18.01.2021 16:00:00 -14,5 -16,2 5 3 7 4 NNW 1007,9 3,5 0,0
18.01.2021 15:00:00 -14,1 -15,8 3 2 5 3 N 1007,9 5 0,0
18.01.2021 14:00:00 -14,1 -15,8 0 0 - - N 1008,1 0,2 0,0
18.01.2021 13:00:00 -14,1 -15,8 4 2 9 5 NNW 1008,1 6 0,0
18.01.2021 12:00:00 -13,9 -15,5 4 2 9 5 NNW 1008,2 1,7 0,0
18.01.2021 11:00:00 -14,5 -16,2 4 2 7 4 NNW 1008,6 5 0,0
18.01.2021 10:00:00 -15,9 -17,7 0 0 6 3 N 1008,9 28 0,0
18.01.2021 09:00:00 -16,5 -18,3 3 2 8 4 N 1009,2 18 0,0
18.01.2021 08:00:00 -19,0 -21,2 0 0 5 3 N 1008,8 23 0,0
18.01.2021 07:00:00 -21,1 -23,4 2 1 7 4 W 1009,1 28 0,0
18.01.2021 06:00:00 -23,4 -26,2 3 2 - - WZW 1009,4 27 0,0
18.01.2021 05:00:00 -23,4 -26,2 3 1 5 3 OZO 1009,6 47 0,0
18.01.2021 04:00:00 -23,3 -26,1 3 2 6 3 W 1009,6 44 0,0
18.01.2021 03:00:00 -22,9 -25,5 4 2 4 2 ZW 1009,7 10 0,0
18.01.2021 02:00:00 -22,1 -24,7 0 0 3 1 N 1009,9 42 0,0
18.01.2021 01:00:00 -21,6 -24,1 0 0 - - N 1010,0 26 0,0
18.01.2021 00:00:00 -21,5 -24,0 0 0 4 2 N 1010,3 9 0,0
17.01.2021 23:00:00 -20,8 -23,3 3 1 5 3 ZW 1010,7 18 0,0
17.01.2021 22:00:00 -20,3 -22,7 2 1 6 3 W 1011,1 50 0,0
17.01.2021 21:00:00 -20,2 -22,6 0 0 4 2 N 1011,1 16 0,0
17.01.2021 20:00:00 -19,6 -21,9 0 0 5 3 N 1011,4 27 0,0
17.01.2021 19:00:00 -19,2 -21,5 2 1 5 3 Z 1011,5 24 0,0
17.01.2021 18:00:00 -19,0 -21,2 0 0 6 3 N 1011,4 29 0,0
17.01.2021 17:00:00 -18,6 -20,8 0 0 4 2 N 1011,5 20 0,0
17.01.2021 16:00:00 -17,8 -19,8 3 1 4 2 ZZO 1011,6 26 0,0
17.01.2021 15:00:00 -16,6 -18,5 0 0 3 2 N 1011,7 14 0,0
17.01.2021 14:00:00 -15,6 -17,5 0 0 4 2 N 1011,8 16 0,0
17.01.2021 13:00:00 -13,6 -15,3 0 0 4 2 N 1011,9 23 0,0
17.01.2021 12:00:00 -12,2 -13,8 3 2 5 3 ONO 1012,3 17 0,0
17.01.2021 11:00:00 -11,7 -13,3 3 2 5 3 NNW 1012,5 24 0,0
17.01.2021 10:00:00 -11,5 -13,2 2 1 13 7 Z 1012,7 18 0,0
17.01.2021 09:00:00 -9,6 -10,8 9 5 14 8 N 1012,5 17 0,0
17.01.2021 08:00:00 -10,3 -11,6 3 2 7 4 NNO 1012,5 15 0,0
17.01.2021 07:00:00 -9,6 -10,8 6 3 10 5 NW 1012,5 18 0,0
17.01.2021 06:00:00 -10,8 -12,1 3 2 6 3 NW 1013,0 18 0,0
17.01.2021 05:00:00 -12,3 -13,9 0 0 5 3 N 1013,2 17 0,0
17.01.2021 04:00:00 -12,1 -13,5 3 1 4 2 NW 1013,7 17 0,0
17.01.2021 03:00:00 -12,0 -13,4 3 2 5 3 NNW 1014,0 30 0,0
17.01.2021 02:00:00 -12,5 -13,9 3 2 - - O 1014,2 28 0,0
17.01.2021 01:00:00 -12,5 -13,9 3 1 5 3 NNW 1014,6 29 0,0
17.01.2021 00:00:00 -14,2 -15,9 3 2 7 4 ZO 1015,3 31 0,0

tt = temperatuur
td = dauwpunt
ff = windsnelheid
fx = windstoten
dd = windrichting
ppp = luchtdruk
vv = zicht
rr = neerslag

Weerstations in de omgeving